Overview Statistics Trail Chart Weather Telemetry Raw packets
 

This is the latest recevied weather packets stored in our database for station/object KD7DVD-1. If no packets are shown the sender has not sent any weather packets the latest 10 day(s).

<< 1 2 3 4 5 6 >>
Time Temp. Humidity Pressure Rain* Wind** Luminosity Snow
1788620421 11.67° C 94% 1017.5 hPa 0 mm - - -
1788618621 11.11° C 94% 1017.2 hPa 0 mm - - -
1788616821 11.11° C 94% 1016.9 hPa 0 mm - - -
1788615021 10.56° C 94% 1016.9 hPa 0 mm - - -
1788613221 10.56° C 93% 1016.9 hPa 0 mm - - -
1788611421 10.56° C 93% 1016.8 hPa 0 mm - - -
1788609621 11.11° C 93% 1016.7 hPa 0 mm - - -
1788607821 11.11° C 93% 1016.7 hPa 0 mm - - -
1788606015 11.11° C 93% 1016.6 hPa 0 mm - - -
1788604218 11.67° C 92% 1016.4 hPa 0 mm - - -
1788602418 11.67° C 92% 1016.2 hPa 0 mm - - -
1788600622 12.22° C 91% 1016.2 hPa 0 mm - - -
1788598822 12.22° C 91% 1016.2 hPa 0 mm - - -
1788597018 12.22° C 91% 1016.1 hPa 0 mm - - -
1788595217 12.78° C 90% 1016.1 hPa 0 mm - - -
1788593422 12.78° C 89% 1016 hPa 0 mm - - -
1788591617 13.33° C 87% 1015.8 hPa 0 mm - - -
1788589821 13.89° C 87% 1015.7 hPa 0 mm - - -
1788588016 14.44° C 84% 1015.4 hPa 0 mm - - -
1788586221 15° C 82% 1015.2 hPa 0 mm - - -
1788584416 15.56° C 80% 1015.3 hPa 0 mm - - -
1788582621 15.56° C 79% 1015.2 hPa 0 mm - - -
1788580821 16.11° C 77% 1015.4 hPa 0 mm - - -
1788579016 16.11° C 76% 1015.3 hPa 0 mm - - -
1788577216 16.67° C 74% 1015 hPa 0 mm - - -

* Rain latest hour (hover to see other rain measurements)
** Current wind speed in m/s (hover to see current wind gust speed)